Volver al catálogo

GONETS M 21

ActivoComunicacionesPO
NORAD 47228·PAYLOAD·🇷🇺 Russia

Lanzado Dec 3, 2020 desde Plesetsk Cosmodrome

Loading…

Próximos Pases (próximas 24 horas)

TLE

ActualizadoSource: Space-Track

Época: Sep 14, 2026, 13:45 UTC

1 47228U 20091B   26257.57308667  .00000011  00000-0  55208-5 0  9996
2 47228  82.4911 245.5147 0014895   5.4475 354.6764 12.42888952262172

Sigue GONETS M 21 en tiempo real con AllMySat

Download on the App Store